Sugar Land, TX

10:46 AM CST on January 20, 2017 (GMT -0600)
Sugar Land Municipal-Hull

Weather History for KSGR - November, 2012

Change the Weather History Date:

Friday, November 30, 2012

  Actual Average Record
Temperature  
Mean Temperature 70 °F -  
Max Temperature 77 °F 66 °F 82 °F (1949)
Min Temperature 62 °F 43 °F 24 °F (1976)
Cooling Degree Days 4    
Growing Degree Days 20 (Base 50)    
Moisture  
Dew Point 64 °F    
Average Humidity 83    
Maximum Humidity 94    
Minimum Humidity 64    
Precipitation  
Precipitation 0.18 in - - ()
Sea Level Pressure  
Sea Level Pressure 30.16 in    
Wind  
Wind Speed 6 mph (SE)    
Max Wind Speed 13 mph    
Max Gust Speed 20 mph    
Visibility 9 miles    
Events Rain    
Averages and records for this station are not official NWS values.
T = Trace of Precipitation, MM = Missing Value Source: NWS Daily Summary

Daily Weather History Graph

Daily Weather History Graph

Search for Another Location

Airport or City:

Trip Planner

Search our weather history database for the weather conditions in past years. The results will help you decide how hot, cold, wet, or windy it might be!

Date:

Astronomy

Nov. 30, 2012 Rise Set
Actual Time 6:59 AM CST 5:23 PM CST
Civil Twilight 6:33 AM CST 5:49 PM CST
Nautical Twilight 6:04 AM CST 6:18 PM CST
Astronomical Twilight 5:35 AM CST 6:47 PM CST
Moon 7:17 PM CST (11/30) 8:32 AM CST (11/30)
Length of Visible Light 11h 15m
Length of Day
10h 23m
Waning Gibbous, 96% of the Moon is Illuminated
Nov 30
Waning Gibbous
Dec 6
Last Quarter
Dec 13
New
Dec 19
First Quarter
Dec 28
Full

Hourly Weather History & Observations

Time (CST) Temp. Dew Point Humidity Pressure Visibility Wind Dir Wind Speed Gust Speed Precip Events Conditions
12:41 AM 62.6 °F 60.8 °F 94% 30.18 in 6.0 mi East 3.5 mph - N/A   Overcast
4:53 AM 64.0 °F 62.1 °F 93% 30.16 in 10.0 mi ESE 4.6 mph - N/A   Overcast
5:53 AM 64.0 °F 62.1 °F 93% 30.17 in 10.0 mi ESE 3.5 mph - N/A   Overcast
6:48 AM 64.4 °F 62.6 °F 94% 30.15 in 9.0 mi ESE 3.5 mph - N/A   Mostly Cloudy
6:53 AM 64.0 °F 62.1 °F 93% 30.18 in 9.0 mi ESE 3.5 mph - N/A   Overcast
7:53 AM 64.9 °F 62.1 °F 90% 30.19 in 4.0 mi Calm Calm - N/A   Overcast
8:02 AM 64.4 °F 62.6 °F 94% 30.17 in 4.0 mi ESE 4.6 mph - N/A   Overcast
8:53 AM 69.1 °F 63.0 °F 81% 30.20 in 10.0 mi SE 8.1 mph - 0.00 in   Mostly Cloudy
9:29 AM 71.6 °F 64.4 °F 78% 30.18 in 10.0 mi SE 11.5 mph - N/A   Mostly Cloudy
9:53 AM 72.0 °F 64.0 °F 76% 30.21 in 10.0 mi SE 9.2 mph - N/A   Mostly Cloudy
10:01 AM 73.4 °F 64.4 °F 73% 30.18 in 10.0 mi SE 10.4 mph - N/A   Mostly Cloudy
10:34 AM 73.4 °F 64.4 °F 73% 30.18 in 10.0 mi SE 6.9 mph - 0.00 in Rain Light Rain
10:53 AM 75.9 °F 64.9 °F 69% 30.21 in 10.0 mi South 10.4 mph - 0.00 in   Mostly Cloudy
11:09 AM 77.0 °F 66.2 °F 69% 30.17 in 10.0 mi South 8.1 mph - N/A   Mostly Cloudy
11:53 AM 77.0 °F 64.0 °F 64% 30.18 in 10.0 mi South 6.9 mph - N/A   Mostly Cloudy
12:53 PM 75.9 °F 66.9 °F 74% 30.14 in 10.0 mi NE 3.5 mph - 0.02 in   Mostly Cloudy
1:53 PM 75.9 °F 66.9 °F 74% 30.12 in 10.0 mi ESE 8.1 mph - N/A   Mostly Cloudy
2:53 PM 73.9 °F 66.9 °F 79% 30.11 in 3.0 mi ESE 4.6 mph - 0.14 in Rain Light Rain
3:53 PM 73.9 °F 66.0 °F 76% 30.11 in 10.0 mi ESE 12.7 mph 18.4 mph 0.00 in   Mostly Cloudy
4:53 PM 72.0 °F 66.0 °F 81% 30.11 in 10.0 mi ESE 11.5 mph 19.6 mph 0.02 in   Overcast
5:53 PM 71.1 °F 66.0 °F 84% 30.12 in 10.0 mi SE 10.4 mph - N/A   Scattered Clouds
6:53 PM 69.1 °F 66.0 °F 90% 30.12 in 10.0 mi SSE 8.1 mph - N/A   Mostly Cloudy
9:53 PM 66.9 °F 64.9 °F 93% 30.15 in 10.0 mi SSE 8.1 mph - N/A   Scattered Clouds
10:10 PM 66.2 °F 64.4 °F 94% 30.12 in 10.0 mi SSE 8.1 mph - N/A   Mostly Cloudy
10:49 PM 66.2 °F 64.4 °F 94% 30.13 in 10.0 mi SE 5.8 mph - N/A   Scattered Clouds
11:53 PM 66.9 °F 64.9 °F 93% 30.15 in 10.0 mi SSE 8.1 mph - N/A   Mostly Cloudy